LOCATION_NAME,SAMPLE COLLECTION TIME,DOSE EQUIVALENT RATE (nSv/h),GAMMA COUNT RATE R02 (CPM),GAMMA COUNT RATE R03 (CPM),GAMMA COUNT RATE R04 (CPM),GAMMA COUNT RATE R05 (CPM),GAMMA COUNT RATE R06 (CPM),GAMMA COUNT RATE R07 (CPM),GAMMA COUNT RATE R08 (CPM),GAMMA COUNT RATE R09 (CPM),STATUS
AL: MOBILE,01/01/2019 00:30:00,48.00,1887.00,1023.00,262.00,131.00,82.00,86.00,54.00,23.00,APPROVED
AL: MOBILE,01/01/2019 01:30:00,46.00,1850.00,983.00,255.00,124.00,76.00,84.00,55.00,23.00,APPROVED
AL: MOBILE,01/01/2019 02:30:00,47.00,1853.00,981.00,258.00,125.00,77.00,80.00,54.00,23.00,APPROVED
AL: MOBILE,01/01/2019 03:30:00,47.00,1873.00,1006.00,263.00,127.00,79.00,84.00,55.00,23.00,APPROVED
AL: MOBILE,01/01/2019 04:31:00,47.00,1831.00,978.00,256.00,126.00,76.00,80.00,53.00,23.00,APPROVED
AL: MOBILE,01/01/2019 05:31:00,45.00,1829.00,969.00,254.00,123.00,77.00,80.00,53.00,23.00,APPROVED
AL: MOBILE,01/01/2019 06:31:00,47.00,1835.00,976.00,255.00,124.00,76.00,81.00,54.00,23.00,APPROVED
AL: MOBILE,01/01/2019 07:31:00,46.00,1852.00,993.00,256.00,128.00,77.00,83.00,56.00,22.00,APPROVED
AL: MOBILE,01/01/2019 08:31:00,46.00,1847.00,983.00,256.00,126.00,77.00,84.00,53.00,24.00,APPROVED
AL: MOBILE,01/01/2019 09:32:00,45.00,1857.00,990.00,257.00,128.00,77.00,85.00,54.00,23.00,APPROVED
AL: MOBILE,01/01/2019 10:32:00,45.00,1876.00,1008.00,261.00,129.00,79.00,87.00,55.00,24.00,APPROVED
AL: MOBILE,01/01/2019 11:32:00,47.00,1875.00,1010.00,264.00,132.00,79.00,89.00,56.00,23.00,APPROVED
AL: MOBILE,01/01/2019 12:32:00,47.00,1872.00,1006.00,264.00,132.00,79.00,88.00,53.00,24.00,APPROVED
AL: MOBILE,01/01/2019 13:32:00,49.00,2017.00,1128.00,291.00,152.00,86.00,98.00,59.00,26.00,APPROVED
AL: MOBILE,01/01/2019 14:33:00,45.00,1992.00,1108.00,282.00,149.00,85.00,98.00,60.00,25.00,APPROVED
AL: MOBILE,01/01/2019 15:33:00,42.00,1919.00,1050.00,271.00,142.00,80.00,95.00,57.00,26.00,APPROVED
AL: MOBILE,01/01/2019 16:33:00,43.00,1893.00,1020.00,272.00,135.00,79.00,92.00,56.00,24.00,APPROVED
AL: MOBILE,01/01/2019 17:33:00,43.00,1899.00,1033.00,270.00,137.00,83.00,91.00,56.00,24.00,APPROVED
AL: MOBILE,01/01/2019 18:33:00,45.00,1895.00,1017.00,263.00,139.00,80.00,90.00,56.00,24.00,APPROVED
AL: MOBILE,01/01/2019 19:34:00,43.00,1891.00,1026.00,267.00,134.00,80.00,89.00,55.00,24.00,APPROVED
AL: MOBILE,01/01/2019 20:34:00,42.00,1909.00,1022.00,267.00,134.00,82.00,90.00,56.00,23.00,APPROVED
AL: MOBILE,01/01/2019 21:34:00,45.00,1891.00,1016.00,266.00,132.00,80.00,86.00,55.00,24.00,APPROVED
AL: MOBILE,01/01/2019 22:34:00,42.00,1902.00,1034.00,263.00,136.00,79.00,87.00,59.00,25.00,APPROVED
AL: MOBILE,01/01/2019 23:34:00,45.00,1910.00,1033.00,264.00,137.00,81.00,89.00,57.00,23.00,APPROVED
AL: MOBILE,01/02/2019 00:35:00,42.00,1910.00,1021.00,266.00,134.00,81.00,90.00,55.00,24.00,APPROVED
AL: MOBILE,01/02/2019 01:35:00,45.00,1917.00,1041.00,264.00,133.00,82.00,94.00,55.00,25.00,APPROVED
AL: MOBILE,01/02/2019 02:35:00,49.00,1918.00,1024.00,263.00,133.00,81.00,90.00,54.00,23.00,APPROVED
AL: MOBILE,01/02/2019 03:35:00,46.00,1915.00,1031.00,268.00,135.00,81.00,93.00,53.00,24.00,APPROVED
AL: MOBILE,01/02/2019 04:36:00,46.00,1926.00,1043.00,267.00,135.00,80.00,92.00,54.00,24.00,APPROVED
AL: MOBILE,01/02/2019 05:36:00,48.00,1927.00,1040.00,276.00,139.00,81.00,94.00,54.00,26.00,APPROVED
AL: MOBILE,01/02/2019 06:36:00,47.00,1943.00,1063.00,279.00,143.00,83.00,97.00,55.00,25.00,APPROVED
AL: MOBILE,01/02/2019 07:36:00,46.00,1947.00,1073.00,281.00,141.00,83.00,99.00,57.00,24.00,APPROVED
AL: MOBILE,01/02/2019 08:36:00,47.00,1968.00,1087.00,284.00,151.00,86.00,100.00,57.00,26.00,APPROVED
AL: MOBILE,01/02/2019 09:37:00,48.00,1972.00,1104.00,288.00,151.00,89.00,104.00,59.00,25.00,APPROVED
AL: MOBILE,01/02/2019 10:37:00,47.00,1974.00,1098.00,291.00,157.00,88.00,106.00,59.00,25.00,APPROVED
AL: MOBILE,01/02/2019 11:37:00,47.00,1988.00,1092.00,296.00,149.00,88.00,103.00,59.00,26.00,APPROVED
AL: MOBILE,01/02/2019 12:37:00,51.00,1976.00,1092.00,289.00,149.00,86.00,102.00,57.00,24.00,APPROVED
AL: MOBILE,01/02/2019 13:37:00,46.00,1983.00,1095.00,289.00,150.00,88.00,105.00,57.00,25.00,APPROVED
AL: MOBILE,01/02/2019 14:38:00,46.00,2004.00,1118.00,294.00,154.00,90.00,108.00,58.00,26.00,APPROVED
AL: MOBILE,01/02/2019 15:38:00,51.00,2012.00,1136.00,301.00,161.00,90.00,112.00,63.00,27.00,APPROVED
AL: MOBILE,01/02/2019 16:38:00,49.00,2032.00,1149.00,301.00,164.00,92.00,112.00,62.00,26.00,APPROVED
AL: MOBILE,01/02/2019 17:38:00,47.00,2026.00,1151.00,304.00,164.00,91.00,111.00,62.00,28.00,APPROVED
AL: MOBILE,01/02/2019 18:17:00,48.00,2012.00,1140.00,294.00,163.00,92.00,110.00,63.00,26.00,APPROVED
AL: MOBILE,01/02/2019 19:24:00,47.00,1958.00,1068.00,275.00,138.00,83.00,96.00,56.00,24.00,APPROVED
AL: MOBILE,01/02/2019 20:24:00,48.00,1985.00,1103.00,281.00,152.00,89.00,100.00,59.00,25.00,APPROVED
AL: MOBILE,01/02/2019 21:24:00,48.00,1981.00,1105.00,285.00,153.00,89.00,104.00,60.00,27.00,APPROVED
AL: MOBILE,01/02/2019 22:25:00,48.00,1983.00,1124.00,292.00,159.00,89.00,103.00,61.00,27.00,APPROVED
AL: MOBILE,01/02/2019 23:25:00,48.00,1979.00,1104.00,288.00,158.00,88.00,105.00,61.00,25.00,APPROVED
AL: MOBILE,01/03/2019 00:25:00,46.00,1971.00,1119.00,286.00,162.00,89.00,105.00,61.00,26.00,APPROVED
AL: MOBILE,01/03/2019 01:25:00,48.00,1976.00,1111.00,292.00,159.00,91.00,107.00,61.00,26.00,APPROVED
AL: MOBILE,01/03/2019 02:25:00,47.00,1972.00,1126.00,297.00,161.00,92.00,108.00,61.00,27.00,APPROVED
AL: MOBILE,01/03/2019 03:26:00,48.00,1955.00,1115.00,293.00,156.00,91.00,107.00,62.00,27.00,APPROVED
AL: MOBILE,01/03/2019 04:26:00,45.00,1946.00,1102.00,290.00,155.00,85.00,105.00,57.00,27.00,APPROVED
AL: MOBILE,01/03/2019 05:26:00,45.00,1954.00,1089.00,283.00,151.00,88.00,103.00,58.00,25.00,APPROVED
AL: MOBILE,01/03/2019 06:26:00,47.00,1944.00,1082.00,282.00,148.00,87.00,102.00,57.00,26.00,APPROVED
AL: MOBILE,01/03/2019 07:26:00,47.00,2011.00,1137.00,294.00,160.00,91.00,106.00,61.00,26.00,APPROVED
AL: MOBILE,01/03/2019 08:27:00,48.00,2027.00,1172.00,305.00,167.00,92.00,111.00,64.00,27.00,APPROVED
AL: MOBILE,01/03/2019 09:27:00,49.00,2065.00,1189.00,308.00,175.00,95.00,113.00,65.00,29.00,APPROVED
AL: MOBILE,01/03/2019 10:27:00,52.00,2143.00,1249.00,327.00,183.00,99.00,125.00,69.00,28.00,APPROVED
AL: MOBILE,01/03/2019 11:27:00,50.00,2109.00,1208.00,316.00,175.00,98.00,117.00,67.00,27.00,APPROVED
AL: MOBILE,01/03/2019 12:27:00,52.00,2046.00,1163.00,303.00,166.00,96.00,114.00,61.00,28.00,APPROVED
AL: MOBILE,01/03/2019 13:28:00,49.00,1998.00,1116.00,299.00,153.00,89.00,107.00,59.00,25.00,APPROVED
AL: MOBILE,01/03/2019 14:28:00,49.00,1993.00,1103.00,290.00,145.00,87.00,105.00,56.00,26.00,APPROVED
AL: MOBILE,01/03/2019 22:30:00,48.00,2007.00,1102.00,285.00,146.00,87.00,99.00,57.00,26.00,APPROVED
AL: MOBILE,01/03/2019 23:30:00,48.00,2017.00,1132.00,294.00,154.00,91.00,105.00,61.00,27.00,APPROVED
AL: MOBILE,01/04/2019 00:30:00,49.00,2024.00,1137.00,298.00,155.00,89.00,107.00,60.00,26.00,APPROVED
AL: MOBILE,01/04/2019 01:30:00,51.00,2030.00,1139.00,302.00,159.00,92.00,111.00,61.00,27.00,APPROVED
AL: MOBILE,01/04/2019 02:30:00,51.00,2151.00,1241.00,327.00,177.00,100.00,123.00,65.00,29.00,APPROVED
AL: MOBILE,01/04/2019 07:31:00,56.00,2214.00,1285.00,331.00,188.00,98.00,121.00,68.00,28.00,APPROVED
AL: MOBILE,01/04/2019 08:32:00,52.00,2107.00,1200.00,312.00,172.00,94.00,114.00,65.00,26.00,APPROVED
AL: MOBILE,01/04/2019 09:32:00,48.00,1960.00,1081.00,281.00,145.00,85.00,99.00,58.00,25.00,APPROVED
AL: MOBILE,01/04/2019 10:32:00,46.00,1892.00,1020.00,265.00,135.00,82.00,92.00,53.00,24.00,APPROVED
AL: MOBILE,01/04/2019 11:32:00,47.00,1886.00,997.00,261.00,130.00,78.00,89.00,51.00,23.00,APPROVED
AL: MOBILE,01/04/2019 12:32:00,46.00,1887.00,1007.00,261.00,128.00,77.00,92.00,51.00,23.00,APPROVED
AL: MOBILE,01/04/2019 13:33:00,47.00,1889.00,1017.00,266.00,130.00,79.00,94.00,52.00,23.00,APPROVED
AL: MOBILE,01/04/2019 14:33:00,46.00,1903.00,1016.00,271.00,131.00,81.00,94.00,53.00,24.00,APPROVED
AL: MOBILE,01/04/2019 15:33:00,47.00,1906.00,1018.00,269.00,132.00,81.00,94.00,51.00,24.00,APPROVED
AL: MOBILE,01/04/2019 16:33:00,48.00,1921.00,1036.00,272.00,131.00,81.00,93.00,52.00,23.00,APPROVED
AL: MOBILE,01/04/2019 17:33:00,47.00,1939.00,1052.00,277.00,135.00,84.00,97.00,52.00,23.00,APPROVED
AL: MOBILE,01/04/2019 18:34:00,46.00,1944.00,1051.00,278.00,139.00,82.00,95.00,53.00,24.00,APPROVED
AL: MOBILE,01/04/2019 19:34:00,47.00,1934.00,1063.00,279.00,140.00,83.00,94.00,55.00,24.00,APPROVED
AL: MOBILE,01/04/2019 20:34:00,49.00,1933.00,1053.00,279.00,141.00,84.00,95.00,55.00,24.00,APPROVED
AL: MOBILE,01/04/2019 21:34:00,47.00,1936.00,1056.00,279.00,138.00,83.00,95.00,56.00,25.00,APPROVED
AL: MOBILE,01/04/2019 22:34:00,48.00,1942.00,1055.00,276.00,138.00,85.00,94.00,54.00,24.00,APPROVED
AL: MOBILE,01/04/2019 23:35:00,50.00,1925.00,1038.00,270.00,135.00,81.00,93.00,52.00,25.00,APPROVED
AL: MOBILE,01/05/2019 00:35:00,50.00,1932.00,1033.00,274.00,132.00,83.00,93.00,51.00,23.00,APPROVED
AL: MOBILE,01/05/2019 01:35:00,49.00,1935.00,1035.00,270.00,135.00,81.00,93.00,53.00,24.00,APPROVED
AL: MOBILE,01/05/2019 02:35:00,52.00,1940.00,1035.00,272.00,134.00,84.00,92.00,53.00,24.00,APPROVED
AL: MOBILE,01/05/2019 03:36:00,50.00,1940.00,1051.00,274.00,137.00,82.00,95.00,51.00,25.00,APPROVED
AL: MOBILE,01/05/2019 04:36:00,51.00,1949.00,1055.00,271.00,139.00,85.00,95.00,52.00,24.00,APPROVED
AL: MOBILE,01/05/2019 05:36:00,48.00,1950.00,1068.00,277.00,140.00,82.00,97.00,54.00,25.00,APPROVED
AL: MOBILE,01/05/2019 06:36:00,51.00,1958.00,1073.00,280.00,142.00,85.00,94.00,56.00,24.00,APPROVED
AL: MOBILE,01/05/2019 07:36:00,51.00,1959.00,1077.00,279.00,142.00,86.00,99.00,57.00,26.00,APPROVED
AL: MOBILE,01/05/2019 08:37:00,50.00,1951.00,1073.00,282.00,141.00,85.00,97.00,55.00,25.00,APPROVED
AL: MOBILE,01/05/2019 09:37:00,48.00,1949.00,1070.00,278.00,137.00,82.00,98.00,53.00,25.00,APPROVED
AL: MOBILE,01/05/2019 10:37:00,50.00,1952.00,1057.00,272.00,134.00,85.00,96.00,52.00,25.00,APPROVED
AL: MOBILE,01/05/2019 11:37:00,51.00,1940.00,1052.00,275.00,138.00,83.00,93.00,52.00,25.00,APPROVED
AL: MOBILE,01/05/2019 12:37:00,50.00,1946.00,1058.00,278.00,139.00,82.00,94.00,53.00,26.00,APPROVED
AL: MOBILE,01/05/2019 15:38:00,48.00,1952.00,1062.00,277.00,137.00,83.00,95.00,53.00,25.00,APPROVED
AL: MOBILE,01/05/2019 16:38:00,47.00,1917.00,1033.00,270.00,131.00,83.00,93.00,52.00,24.00,APPROVED
AL: MOBILE,01/05/2019 19:39:00,47.00,1920.00,1029.00,272.00,130.00,83.00,90.00,54.00,24.00,APPROVED
AL: MOBILE,01/05/2019 20:39:00,47.00,1903.00,1028.00,267.00,127.00,81.00,87.00,55.00,25.00,APPROVED
AL: MOBILE,01/05/2019 23:40:00,48.00,1888.00,1014.00,264.00,124.00,80.00,86.00,52.00,24.00,APPROVED
AL: MOBILE,01/06/2019 00:40:00,51.00,1896.00,1008.00,263.00,125.00,79.00,88.00,51.00,23.00,APPROVED
AL: MOBILE,01/06/2019 03:40:00,51.00,1910.00,1031.00,269.00,130.00,82.00,90.00,51.00,23.00,APPROVED
AL: MOBILE,01/06/2019 04:41:00,48.00,1926.00,1044.00,270.00,133.00,82.00,94.00,53.00,24.00,APPROVED
AL: MOBILE,01/06/2019 05:41:00,52.00,1937.00,1043.00,269.00,139.00,81.00,93.00,52.00,25.00,APPROVED
AL: MOBILE,01/06/2019 07:41:00,51.00,1937.00,1056.00,278.00,139.00,82.00,95.00,54.00,24.00,APPROVED
AL: MOBILE,01/06/2019 11:42:00,53.00,1967.00,1097.00,280.00,144.00,86.00,97.00,55.00,26.00,APPROVED
AL: MOBILE,01/06/2019 15:43:00,49.00,1973.00,1081.00,286.00,142.00,85.00,98.00,54.00,26.00,APPROVED
AL: MOBILE,01/06/2019 16:43:00,46.00,1977.00,1060.00,282.00,135.00,84.00,96.00,53.00,25.00,APPROVED
AL: MOBILE,01/06/2019 17:43:00,46.00,1967.00,1069.00,278.00,138.00,84.00,92.00,57.00,25.00,APPROVED
AL: MOBILE,01/06/2019 19:44:00,47.00,1969.00,1082.00,279.00,140.00,87.00,87.00,60.00,25.00,APPROVED
AL: MOBILE,01/06/2019 20:44:00,46.00,1966.00,1080.00,279.00,141.00,82.00,89.00,61.00,26.00,APPROVED
AL: MOBILE,01/06/2019 21:44:00,45.00,1963.00,1073.00,278.00,139.00,82.00,88.00,58.00,27.00,APPROVED
AL: MOBILE,01/07/2019 03:45:00,50.00,1944.00,1070.00,278.00,136.00,84.00,95.00,54.00,26.00,APPROVED
AL: MOBILE,01/07/2019 04:46:00,51.00,1959.00,1067.00,277.00,139.00,86.00,93.00,55.00,25.00,APPROVED
AL: MOBILE,01/07/2019 05:46:00,50.00,1954.00,1076.00,279.00,139.00,84.00,95.00,55.00,25.00,APPROVED
AL: MOBILE,01/07/2019 07:46:00,52.00,1974.00,1095.00,284.00,147.00,88.00,98.00,55.00,25.00,APPROVED
AL: MOBILE,01/07/2019 11:47:00,55.00,2005.00,1146.00,292.00,162.00,94.00,106.00,60.00,27.00,APPROVED
AL: MOBILE,01/07/2019 12:47:00,53.00,2025.00,1169.00,298.00,167.00,92.00,109.00,62.00,27.00,APPROVED
AL: MOBILE,01/07/2019 13:47:00,51.00,2036.00,1181.00,302.00,167.00,94.00,109.00,61.00,27.00,APPROVED
AL: MOBILE,01/07/2019 15:48:00,49.00,1999.00,1129.00,297.00,155.00,88.00,105.00,61.00,27.00,APPROVED
AL: MOBILE,01/07/2019 16:48:00,46.00,1970.00,1076.00,288.00,144.00,84.00,97.00,58.00,26.00,APPROVED
AL: MOBILE,01/07/2019 17:48:00,47.00,1949.00,1060.00,279.00,135.00,82.00,90.00,57.00,25.00,APPROVED
AL: MOBILE,01/07/2019 19:49:00,48.00,1928.00,1050.00,274.00,133.00,80.00,88.00,57.00,25.00,APPROVED
AL: MOBILE,01/07/2019 20:49:00,47.00,1939.00,1051.00,271.00,133.00,83.00,85.00,57.00,25.00,APPROVED
AL: MOBILE,01/07/2019 21:49:00,45.00,1925.00,1047.00,271.00,135.00,82.00,87.00,57.00,24.00,APPROVED
AL: MOBILE,01/07/2019 23:49:00,46.00,1909.00,1018.00,271.00,128.00,82.00,88.00,51.00,25.00,APPROVED
AL: MOBILE,01/08/2019 00:50:00,46.00,1901.00,1023.00,268.00,126.00,79.00,88.00,50.00,24.00,APPROVED
AL: MOBILE,01/08/2019 01:50:00,47.00,1916.00,1016.00,267.00,126.00,81.00,87.00,51.00,24.00,APPROVED
AL: MOBILE,01/08/2019 03:50:00,48.00,1909.00,1020.00,268.00,127.00,80.00,90.00,50.00,24.00,APPROVED
AL: MOBILE,01/08/2019 04:50:00,48.00,1912.00,1028.00,274.00,131.00,82.00,90.00,51.00,25.00,APPROVED
AL: MOBILE,01/08/2019 05:51:00,47.00,1907.00,1042.00,273.00,132.00,82.00,93.00,52.00,25.00,APPROVED
AL: MOBILE,01/08/2019 08:51:00,48.00,1954.00,1072.00,283.00,140.00,84.00,96.00,53.00,26.00,APPROVED
AL: MOBILE,01/08/2019 09:52:00,49.00,1969.00,1107.00,289.00,150.00,89.00,101.00,58.00,25.00,APPROVED
AL: MOBILE,01/08/2019 10:52:00,50.00,1994.00,1130.00,302.00,160.00,92.00,107.00,62.00,27.00,APPROVED
AL: MOBILE,01/08/2019 11:52:00,48.00,2004.00,1154.00,306.00,164.00,93.00,111.00,61.00,27.00,APPROVED
AL: MOBILE,01/08/2019 12:52:00,48.00,2007.00,1159.00,307.00,165.00,97.00,110.00,60.00,28.00,APPROVED
AL: MOBILE,01/08/2019 13:52:00,47.00,1999.00,1138.00,300.00,160.00,91.00,110.00,60.00,27.00,APPROVED
AL: MOBILE,01/08/2019 14:53:00,50.00,1982.00,1108.00,298.00,149.00,90.00,104.00,58.00,26.00,APPROVED
AL: MOBILE,01/08/2019 15:53:00,46.00,1949.00,1073.00,285.00,141.00,86.00,98.00,57.00,26.00,APPROVED
AL: MOBILE,01/08/2019 16:53:00,44.00,1914.00,1044.00,274.00,134.00,83.00,87.00,58.00,25.00,APPROVED
AL: MOBILE,01/08/2019 17:53:00,45.00,1905.00,1027.00,271.00,130.00,82.00,81.00,58.00,25.00,APPROVED
AL: MOBILE,01/08/2019 19:54:00,47.00,1921.00,1041.00,268.00,134.00,80.00,83.00,60.00,26.00,APPROVED
AL: MOBILE,01/08/2019 20:54:00,48.00,1919.00,1040.00,270.00,131.00,80.00,83.00,59.00,26.00,APPROVED
AL: MOBILE,01/08/2019 21:54:00,44.00,1911.00,1049.00,273.00,130.00,81.00,83.00,58.00,25.00,APPROVED
AL: MOBILE,01/08/2019 23:54:00,47.00,1941.00,1052.00,271.00,129.00,82.00,82.00,57.00,25.00,APPROVED
AL: MOBILE,01/09/2019 00:55:00,47.00,1922.00,1052.00,272.00,129.00,80.00,87.00,55.00,25.00,APPROVED
AL: MOBILE,01/09/2019 01:55:00,46.00,1926.00,1049.00,271.00,135.00,84.00,90.00,58.00,24.00,APPROVED
AL: MOBILE,01/09/2019 03:55:00,46.00,1947.00,1068.00,278.00,138.00,84.00,95.00,55.00,25.00,APPROVED
AL: MOBILE,01/09/2019 04:55:00,47.00,1954.00,1072.00,279.00,141.00,84.00,98.00,55.00,26.00,APPROVED
AL: MOBILE,01/09/2019 07:56:00,49.00,1986.00,1085.00,284.00,140.00,85.00,99.00,56.00,26.00,APPROVED
AL: MOBILE,01/09/2019 08:56:00,48.00,1995.00,1084.00,288.00,139.00,87.00,96.00,52.00,27.00,APPROVED
AL: MOBILE,01/09/2019 09:56:00,49.00,1979.00,1083.00,283.00,136.00,86.00,98.00,54.00,26.00,APPROVED
AL: MOBILE,01/09/2019 11:57:00,50.00,1994.00,1084.00,287.00,140.00,85.00,98.00,54.00,25.00,APPROVED
AL: MOBILE,01/09/2019 12:57:00,52.00,1985.00,1089.00,283.00,137.00,84.00,96.00,55.00,26.00,APPROVED
AL: MOBILE,01/09/2019 13:57:00,50.00,1982.00,1084.00,285.00,143.00,85.00,95.00,53.00,25.00,APPROVED
AL: MOBILE,01/09/2019 15:58:00,49.00,1962.00,1071.00,280.00,140.00,85.00,96.00,52.00,25.00,APPROVED
AL: MOBILE,01/09/2019 16:58:00,49.00,1948.00,1058.00,279.00,135.00,83.00,94.00,53.00,24.00,APPROVED
AL: MOBILE,01/09/2019 18:17:00,44.00,1918.00,1015.00,272.00,126.00,79.00,89.00,50.00,23.00,APPROVED
AL: MOBILE,01/09/2019 19:17:00,47.00,1926.00,1029.00,274.00,130.00,81.00,90.00,52.00,24.00,APPROVED
AL: MOBILE,01/09/2019 20:17:00,47.00,1926.00,1035.00,270.00,130.00,84.00,90.00,53.00,23.00,APPROVED
AL: MOBILE,01/09/2019 21:18:00,50.00,1929.00,1044.00,272.00,128.00,81.00,89.00,53.00,24.00,APPROVED
AL: MOBILE,01/09/2019 22:18:00,47.00,1919.00,1024.00,272.00,130.00,83.00,89.00,52.00,25.00,APPROVED
AL: MOBILE,01/09/2019 23:18:00,48.00,1911.00,1013.00,270.00,125.00,82.00,90.00,50.00,23.00,APPROVED
AL: MOBILE,01/10/2019 00:18:00,46.00,1911.00,1012.00,268.00,125.00,81.00,88.00,50.00,22.00,APPROVED
AL: MOBILE,01/10/2019 01:18:00,51.00,1910.00,1020.00,268.00,130.00,81.00,89.00,53.00,24.00,APPROVED
AL: MOBILE,01/10/2019 02:19:00,52.00,1917.00,1029.00,269.00,130.00,82.00,88.00,52.00,25.00,APPROVED
AL: MOBILE,01/10/2019 03:19:00,51.00,1918.00,1033.00,269.00,128.00,82.00,89.00,52.00,25.00,APPROVED
AL: MOBILE,01/10/2019 04:19:00,53.00,1923.00,1046.00,268.00,132.00,81.00,88.00,53.00,24.00,APPROVED
AL: MOBILE,01/10/2019 05:19:00,52.00,1923.00,1041.00,266.00,133.00,82.00,90.00,52.00,23.00,APPROVED
AL: MOBILE,01/10/2019 06:19:00,55.00,1944.00,1050.00,268.00,131.00,83.00,91.00,52.00,25.00,APPROVED
AL: MOBILE,01/10/2019 07:20:00,51.00,1942.00,1055.00,267.00,133.00,82.00,92.00,52.00,24.00,APPROVED
AL: MOBILE,01/10/2019 08:20:00,53.00,1956.00,1051.00,274.00,135.00,84.00,92.00,52.00,24.00,APPROVED
AL: MOBILE,01/10/2019 09:20:00,53.00,1957.00,1056.00,270.00,134.00,84.00,94.00,52.00,24.00,APPROVED
AL: MOBILE,01/10/2019 10:20:00,55.00,1967.00,1064.00,273.00,138.00,83.00,91.00,54.00,25.00,APPROVED
AL: MOBILE,01/10/2019 11:20:00,55.00,1972.00,1067.00,274.00,136.00,83.00,94.00,54.00,23.00,APPROVED
AL: MOBILE,01/10/2019 12:21:00,54.00,1973.00,1076.00,276.00,139.00,87.00,92.00,54.00,25.00,APPROVED
AL: MOBILE,01/10/2019 13:21:00,54.00,1962.00,1072.00,273.00,138.00,86.00,94.00,53.00,25.00,APPROVED
AL: MOBILE,01/10/2019 14:21:00,54.00,1980.00,1075.00,275.00,141.00,86.00,93.00,53.00,25.00,APPROVED
AL: MOBILE,01/10/2019 15:21:00,52.00,1973.00,1082.00,278.00,141.00,86.00,95.00,53.00,25.00,APPROVED
AL: MOBILE,01/10/2019 16:21:00,48.00,1945.00,1065.00,276.00,137.00,83.00,95.00,55.00,26.00,APPROVED
AL: MOBILE,01/10/2019 17:22:00,49.00,1940.00,1050.00,274.00,134.00,82.00,92.00,52.00,25.00,APPROVED
AL: MOBILE,01/10/2019 18:22:00,47.00,1923.00,1034.00,270.00,129.00,84.00,91.00,51.00,25.00,APPROVED
AL: MOBILE,01/10/2019 19:22:00,50.00,1919.00,1026.00,273.00,129.00,81.00,92.00,50.00,26.00,APPROVED
AL: MOBILE,01/10/2019 20:22:00,47.00,1923.00,1022.00,271.00,129.00,82.00,87.00,51.00,24.00,APPROVED
AL: MOBILE,01/10/2019 21:22:00,47.00,1922.00,1019.00,268.00,128.00,82.00,89.00,51.00,24.00,APPROVED
AL: MOBILE,01/10/2019 22:23:00,48.00,1923.00,1021.00,271.00,127.00,81.00,88.00,50.00,23.00,APPROVED
AL: MOBILE,01/10/2019 23:23:00,50.00,1938.00,1031.00,269.00,126.00,81.00,88.00,51.00,25.00,APPROVED
AL: MOBILE,01/11/2019 00:23:00,51.00,1922.00,1029.00,269.00,131.00,82.00,91.00,51.00,25.00,APPROVED
AL: MOBILE,01/11/2019 01:23:00,51.00,1928.00,1027.00,267.00,129.00,82.00,90.00,50.00,24.00,APPROVED
AL: MOBILE,01/11/2019 02:24:00,51.00,1929.00,1035.00,268.00,131.00,81.00,88.00,50.00,24.00,APPROVED
AL: MOBILE,01/11/2019 03:24:00,54.00,1930.00,1043.00,271.00,133.00,83.00,91.00,52.00,24.00,APPROVED
AL: MOBILE,01/11/2019 04:24:00,56.00,1951.00,1049.00,272.00,132.00,83.00,90.00,51.00,25.00,APPROVED
AL: MOBILE,01/11/2019 05:24:00,50.00,1962.00,1044.00,272.00,134.00,84.00,91.00,52.00,25.00,APPROVED
AL: MOBILE,01/11/2019 06:24:00,53.00,1966.00,1059.00,273.00,133.00,82.00,92.00,52.00,25.00,APPROVED
AL: MOBILE,01/11/2019 07:25:00,56.00,1958.00,1062.00,271.00,135.00,82.00,93.00,53.00,25.00,APPROVED
AL: MOBILE,01/11/2019 08:25:00,57.00,1978.00,1075.00,276.00,139.00,86.00,95.00,54.00,25.00,APPROVED
AL: MOBILE,01/11/2019 09:25:00,58.00,1974.00,1090.00,279.00,144.00,86.00,95.00,55.00,26.00,APPROVED
AL: MOBILE,01/11/2019 10:25:00,58.00,1995.00,1093.00,276.00,141.00,88.00,96.00,56.00,25.00,APPROVED
AL: MOBILE,01/11/2019 11:25:00,58.00,1999.00,1103.00,280.00,147.00,87.00,95.00,57.00,26.00,APPROVED
AL: MOBILE,01/11/2019 12:26:00,58.00,2010.00,1109.00,281.00,145.00,87.00,96.00,55.00,26.00,APPROVED
AL: MOBILE,01/11/2019 13:26:00,57.00,2010.00,1119.00,288.00,146.00,88.00,100.00,54.00,26.00,APPROVED
AL: MOBILE,01/11/2019 14:26:00,57.00,2015.00,1126.00,282.00,151.00,89.00,102.00,57.00,27.00,APPROVED
AL: MOBILE,01/11/2019 15:26:00,52.00,2013.00,1107.00,285.00,147.00,87.00,97.00,55.00,26.00,APPROVED
AL: MOBILE,01/11/2019 16:26:00,51.00,2010.00,1107.00,291.00,145.00,85.00,98.00,55.00,25.00,APPROVED
AL: MOBILE,01/11/2019 17:27:00,47.00,2009.00,1092.00,288.00,142.00,85.00,98.00,55.00,27.00,APPROVED
AL: MOBILE,01/11/2019 18:27:00,49.00,1992.00,1085.00,288.00,138.00,87.00,97.00,55.00,26.00,APPROVED
AL: MOBILE,01/11/2019 19:27:00,47.00,1973.00,1071.00,286.00,135.00,85.00,94.00,56.00,27.00,APPROVED
AL: MOBILE,01/11/2019 20:27:00,47.00,1966.00,1063.00,280.00,137.00,83.00,89.00,54.00,25.00,APPROVED
AL: MOBILE,01/11/2019 21:27:00,46.00,1970.00,1067.00,281.00,136.00,84.00,93.00,55.00,26.00,APPROVED
AL: MOBILE,01/11/2019 22:28:00,45.00,1976.00,1067.00,284.00,136.00,85.00,93.00,56.00,24.00,APPROVED
AL: MOBILE,01/11/2019 23:28:00,50.00,1972.00,1061.00,275.00,136.00,83.00,95.00,53.00,25.00,APPROVED
AL: MOBILE,01/12/2019 00:28:00,51.00,1972.00,1065.00,279.00,136.00,84.00,94.00,53.00,24.00,APPROVED
AL: MOBILE,01/12/2019 01:28:00,51.00,1990.00,1084.00,281.00,140.00,86.00,95.00,54.00,25.00,APPROVED
AL: MOBILE,01/12/2019 02:28:00,53.00,1989.00,1088.00,281.00,145.00,85.00,99.00,54.00,25.00,APPROVED
AL: MOBILE,01/12/2019 03:29:00,52.00,1994.00,1094.00,281.00,143.00,87.00,97.00,56.00,25.00,APPROVED
AL: MOBILE,01/12/2019 04:29:00,52.00,1984.00,1094.00,283.00,144.00,86.00,97.00,57.00,26.00,APPROVED
AL: MOBILE,01/12/2019 05:29:00,52.00,2000.00,1100.00,284.00,148.00,88.00,98.00,56.00,26.00,APPROVED
AL: MOBILE,01/12/2019 06:29:00,50.00,2012.00,1121.00,290.00,148.00,89.00,101.00,55.00,26.00,APPROVED
AL: MOBILE,01/12/2019 07:29:00,52.00,2007.00,1116.00,287.00,147.00,90.00,100.00,57.00,26.00,APPROVED
AL: MOBILE,01/12/2019 08:30:00,51.00,2005.00,1118.00,292.00,145.00,89.00,101.00,56.00,25.00,APPROVED
AL: MOBILE,01/12/2019 09:30:00,52.00,1994.00,1102.00,294.00,145.00,89.00,100.00,57.00,27.00,APPROVED
AL: MOBILE,01/12/2019 10:30:00,50.00,1977.00,1084.00,282.00,141.00,86.00,96.00,54.00,26.00,APPROVED
AL: MOBILE,01/12/2019 11:30:00,55.00,1979.00,1072.00,286.00,141.00,85.00,96.00,55.00,26.00,APPROVED
AL: MOBILE,01/12/2019 12:31:00,54.00,1985.00,1103.00,283.00,144.00,85.00,97.00,57.00,25.00,APPROVED
AL: MOBILE,01/12/2019 13:31:00,52.00,1998.00,1097.00,287.00,143.00,87.00,99.00,54.00,26.00,APPROVED
AL: MOBILE,01/12/2019 14:31:00,52.00,2004.00,1097.00,290.00,140.00,86.00,96.00,55.00,26.00,APPROVED
AL: MOBILE,01/12/2019 15:31:00,50.00,1995.00,1092.00,286.00,139.00,86.00,97.00,54.00,26.00,APPROVED
AL: MOBILE,01/12/2019 16:31:00,49.00,1984.00,1083.00,286.00,136.00,87.00,99.00,53.00,26.00,APPROVED
AL: MOBILE,01/12/2019 17:32:00,47.00,1995.00,1081.00,288.00,139.00,85.00,97.00,54.00,26.00,APPROVED
AL: MOBILE,01/12/2019 18:32:00,48.00,1976.00,1073.00,286.00,138.00,86.00,99.00,55.00,25.00,APPROVED
AL: MOBILE,01/12/2019 19:32:00,48.00,1952.00,1061.00,282.00,134.00,85.00,93.00,55.00,26.00,APPROVED
AL: MOBILE,01/12/2019 20:32:00,46.00,1925.00,1033.00,274.00,134.00,81.00,89.00,53.00,24.00,APPROVED
AL: MOBILE,01/12/2019 21:32:00,48.00,1914.00,1028.00,270.00,130.00,83.00,87.00,52.00,25.00,APPROVED